Snowfall_Accumulation
0.0 0.0 0.0 0.0 0.0 0.0 0.0 0.0 0.0 0.0 0.0 0.0 0.0 0.0 0.0 0.0 0.0 0.0 0.0 nan nan nan nan nan nan nan nan nan nan nan nan nan nan nan nan nan nan nan
0.0 0.0 0.0 0.0 0.0 0.0 0.0 0.0 0.0 0.0 0.0 0.0 0.0 0.0 0.0 0.0 0.0 0.0 0.0 nan nan nan nan nan nan nan nan nan nan nan nan nan nan nan nan nan nan nan
0.0 0.0 0.0 0.0 0.0 0.0 0.0 0.0 0.0 0.0 0.0 0.0 0.0 0.0 0.0 0.0 0.0 0.0 0.0 0.0 0.0 nan nan nan nan nan nan nan nan nan nan nan nan nan nan nan nan nan
0.0 0.0 0.0 0.0 0.0 0.0 0.0 0.0 0.0 0.0 0.0 0.0 0.0 0.0 0.0 0.0 0.0 0.0 0.0 0.0 0.0 nan nan nan nan nan nan nan nan nan nan nan nan nan nan nan nan nan
0.0 0.0 0.0 0.0 0.0 0.0 0.0 0.0 0.0 0.0 0.0 0.0 0.0 0.0 0.0 0.0 0.0 0.0 0.0 0.0 0.0 nan nan nan nan nan nan nan nan nan nan nan nan nan nan nan nan nan
0.0 0.0 0.0 0.0 0.0 0.0 0.0 0.0 0.0 0.0 0.0 0.0 0.0 0.0 0.0 0.0 0.0 0.0 0.0 0.0 0.0 0.0 nan nan nan nan nan nan nan nan nan nan nan nan nan nan nan nan
0.0 0.0 0.0 nan nan nan 0.0 0.0 0.0 0.0 0.0 0.0 0.0 0.0 0.0 0.0 0.0 0.0 0.0 0.0 0.0 0.0 0.0 0.0 0.0 0.0 0.0 nan nan nan nan nan nan nan nan nan nan nan
0.1 0.0 0.0 0.0 0.0 nan nan nan nan 0.1 0.1 0.0 0.0 0.0 0.0 0.0 0.0 0.0 0.0 0.0 0.0 0.0 0.0 0.0 0.0 0.0 0.0 0.0 nan nan nan nan nan nan nan nan nan nan
0.1 0.1 0.0 0.0 nan 0.0 nan nan nan nan nan 0.0 0.1 0.0 0.0 0.0 0.0 0.0 0.0 0.0 0.0 0.0 0.0 0.0 0.0 0.0 0.0 0.0 nan nan nan nan nan nan nan nan nan nan
0.0 0.0 0.0 0.0 0.0 0.0 0.0 0.0 0.0 0.0 0.0 0.0 0.0 0.0 0.0 0.0 0.0 0.0 0.0 0.0 0.0 0.0 0.0 0.0 0.0 0.0 0.0 0.0 nan nan nan nan nan nan nan nan nan nan
0.0 0.0 0.0 0.0 nan nan 0.0 0.1 0.1 0.0 nan nan nan nan nan nan nan 0.0 0.0 0.0 0.0 0.0 0.0 0.0 0.0 0.0 0.0 0.0 0.0 nan nan nan nan nan nan nan nan nan
0.1 0.0 nan 0.0 nan nan 0.0 0.1 0.3 0.0 0.0 0.0 0.0 0.0 nan nan nan 0.0 0.0 0.2 0.2 0.2 0.0 0.2 0.2 0.2 0.4 0.0 0.0 0.0 0.0 nan nan nan nan nan nan 0.0
0.3 0.1 0.1 nan nan nan nan 0.0 0.1 0.0 0.0 0.0 0.0 0.0 0.0 0.0 0.0 0.0 0.0 0.0 0.2 0.2 0.0 0.2 0.5 0.4 0.7 0.4 0.1 0.1 0.0 0.0 0.0 0.0 nan nan nan 0.0
0.4 0.0 0.0 nan nan nan nan nan nan nan 0.0 0.2 0.5 0.3 0.2 0.2 0.1 0.1 0.0 0.0 0.0 0.0 0.0 0.0 4.1 0.5 0.9 1.4 0.6 0.2 0.1 0.0 0.0 0.0 0.0 nan nan nan
0.1 0.1 nan nan nan nan nan nan nan 0.1 0.3 0.7 0.5 0.4 0.3 0.2 0.1 0.2 0.0 0.0 0.1 0.0 0.0 0.0 0.6 0.1 0.5 1.0 1.2 0.5 0.4 0.2 0.1 0.2 0.1 0.0 0.0 0.0
nan 0.3 nan 0.1 nan nan 0.0 0.0 0.0 0.0 0.2 0.3 0.3 0.2 0.3 0.5 0.4 0.4 0.7 0.7 1.2 1.2 0.2 0.1 0.0 0.0 0.9 0.5 0.7 1.2 0.4 2.0 0.3 0.2 0.2 0.1 0.0 0.0
nan 0.7 0.2 0.3 0.3 0.2 0.2 0.0 0.0 0.1 0.4 0.3 0.4 0.6 0.6 0.6 0.8 0.6 1.0 1.2 2.2 1.8 2.2 1.6 0.2 0.1 0.4 0.3 4.1 1.1 1.4 1.7 0.4 0.6 0.6 0.4 0.4 0.3
2.7 1.1 0.7 0.3 0.4 0.3 0.4 0.4 0.4 0.4 0.4 0.5 0.6 0.6 0.9 1.0 1.4 1.9 1.6 1.6 2.2 1.6 2.1 2.1 2.3 3.9 3.0 1.8 1.4 2.2 1.4 2.1 1.6 1.3 0.9 1.8 1.2 1.0
6.7 6.6 6.3 2.7 2.6 1.5 0.9 0.8 1.2 0.6 0.1 0.7 0.7 0.8 0.9 1.4 1.7 3.0 2.4 2.0 2.4 2.0 1.8 2.5 3.9 4.8 7.4 3.9 1.6 nan 3.3 1.9 1.5 2.9 2.0 3.0 3.7 1.3
10.7 13.0 11.4 9.7 6.7 4.9 3.4 3.1 2.7 2.3 1.8 1.4 1.2 1.4 1.5 2.3 3.6 3.5 2.2 3.2 2.6 4.0 5.3 4.4 4.6 4.9 7.9 6.3 12.0 4.2 nan 2.7 2.3 3.6 4.5 2.6 2.9 nan
12.5 13.0 12.3 12.4 12.5 9.4 7.0 5.9 3.7 5.0 5.2 5.0 3.7 3.4 2.9 3.1 3.7 2.6 2.3 1.8 nan 6.1 8.2 5.3 3.0 nan 7.3 7.7 14.8 9.2 5.4 nan 0.7 5.5 6.2 7.9 6.7 4.5
13.0 12.9 12.0 11.1 11.4 12.0 10.8 9.5 8.7 7.5 6.8 6.3 6.2 6.3 4.9 4.2 5.3 4.5 4.1 6.7 4.3 5.5 7.8 6.7 5.5 6.9 10.2 9.3 9.6 10.1 7.6 4.0 nan nan nan nan 14.4 20.9
14.9 14.2 13.1 11.6 10.3 11.6 11.9 11.4 11.5 11.1 8.4 8.5 8.4 6.9 6.2 9.2 4.5 4.9 6.2 5.9 7.0 10.1 9.5 12.0 8.4 7.4 9.1 10.9 14.7 13.9 11.2 10.4 6.3 6.4 6.3 nan nan nan
Water_Equivalent
0.00 0.00 0.00 0.00 0.00 0.00 0.00 0.00 0.00 0.00 0.00 0.00 0.00 0.00 0.00 0.00 0.00 0.00 0.00 nan nan nan nan nan nan nan nan nan nan nan nan nan nan nan nan nan nan nan
0.00 0.00 0.00 0.00 0.00 0.00 0.00 0.00 0.00 0.00 0.00 0.00 0.00 0.00 0.00 0.00 0.00 0.00 0.00 nan nan nan nan nan nan nan nan nan nan nan nan nan nan nan nan nan nan nan
0.00 0.00 0.00 0.00 0.00 0.00 0.00 0.00 0.00 0.00 0.00 0.00 0.00 0.00 0.00 0.00 0.00 0.00 0.00 0.00 0.00 nan nan nan nan nan nan nan nan nan nan nan nan nan nan nan nan nan
0.00 0.00 0.00 0.00 0.00 0.00 0.00 0.00 0.00 0.00 0.00 0.00 0.00 0.00 0.00 0.00 0.00 0.00 0.00 0.00 0.00 nan nan nan nan nan nan nan nan nan nan nan nan nan nan nan nan nan
0.00 0.00 0.00 0.00 0.00 0.00 0.00 0.00 0.00 0.00 0.00 0.00 0.00 0.00 0.00 0.00 0.00 0.00 0.00 0.00 0.00 nan nan nan nan nan nan nan nan nan nan nan nan nan nan nan nan nan
0.00 0.00 0.00 0.00 0.00 0.00 0.00 0.00 0.00 0.00 0.00 0.00 0.00 0.00 0.00 0.00 0.00 0.00 0.00 0.00 0.00 0.00 nan nan nan nan nan nan nan nan nan nan nan nan nan nan nan nan
0.00 0.00 0.00 nan nan nan 0.00 0.01 0.00 0.00 0.00 0.00 0.00 0.00 0.00 0.00 0.00 0.00 0.00 0.00 0.00 0.00 0.00 0.00 0.00 0.00 0.00 nan nan nan nan nan nan nan nan nan nan nan
0.01 0.00 0.00 0.00 0.00 nan nan nan nan 0.01 0.02 0.00 0.00 0.00 0.00 0.00 0.00 0.00 0.00 0.00 0.00 0.00 0.00 0.00 0.00 0.00 0.00 0.00 nan nan nan nan nan nan nan nan nan nan
0.02 0.01 0.00 0.00 nan 0.00 nan nan nan nan nan 0.01 0.02 0.00 0.00 0.00 0.00 0.00 0.00 0.00 0.00 0.00 0.00 0.00 0.00 0.00 0.00 0.00 nan nan nan nan nan nan nan nan nan nan
0.00 0.00 0.00 0.00 0.00 0.00 0.00 0.00 0.00 0.00 0.00 0.00 0.00 0.00 0.00 0.00 0.00 0.00 0.00 0.00 0.00 0.00 0.00 0.00 0.00 0.00 0.00 0.00 nan nan nan nan nan nan nan nan nan nan
0.00 0.00 0.00 0.00 nan nan 0.00 0.01 0.01 0.00 nan nan nan nan nan nan nan 0.00 0.00 0.02 0.01 0.00 0.00 0.00 0.00 0.00 0.00 0.00 0.00 nan nan nan nan nan nan nan nan nan
0.01 0.00 nan 0.00 nan nan 0.00 0.01 0.04 0.01 0.00 0.00 0.00 0.00 nan nan nan 0.00 0.00 0.06 0.08 0.08 0.00 0.08 0.06 0.08 0.18 0.01 0.01 0.00 0.00 nan nan nan nan nan nan 0.00
0.03 0.02 0.01 nan nan nan nan 0.00 0.02 0.00 0.00 0.00 0.00 0.00 0.00 0.00 0.00 0.00 0.00 0.01 0.09 0.09 0.01 0.08 0.19 0.16 0.26 0.16 0.05 0.02 0.00 0.00 0.00 0.00 nan nan nan 0.00
0.05 0.01 0.00 nan nan nan nan nan nan nan 0.00 0.03 0.10 0.08 0.08 0.07 0.05 0.03 0.00 0.00 0.01 0.01 0.00 0.00 1.65 0.19 0.35 0.46 0.21 0.08 0.03 0.00 0.00 0.00 0.00 nan nan nan
0.02 0.02 nan nan nan nan nan nan nan 0.03 0.09 0.18 0.14 0.13 0.10 0.09 0.04 0.07 0.01 0.02 0.03 0.02 0.00 0.01 0.24 0.03 0.20 0.40 0.41 0.20 0.18 0.08 0.03 0.06 0.03 0.00 0.00 0.00
nan 0.04 nan 0.02 nan nan 0.00 0.00 0.00 0.00 0.07 0.11 0.12 0.09 0.11 0.18 0.17 0.15 0.30 0.27 0.46 0.43 0.04 0.02 0.02 0.02 0.37 0.19 0.28 0.41 0.17 0.66 0.13 0.10 0.09 0.04 0.01 0.00
nan 0.09 0.05 0.08 0.07 0.06 0.05 0.00 0.00 0.03 0.13 0.11 0.15 0.17 0.18 0.21 0.27 0.24 0.38 0.48 0.70 0.53 0.62 0.53 0.05 0.03 0.16 0.10 1.21 0.37 0.50 0.55 0.17 0.25 0.25 0.17 0.16 0.12
0.38 0.21 0.18 0.10 0.12 0.11 0.10 0.11 0.12 0.14 0.13 0.16 0.19 0.19 0.28 0.33 0.45 0.63 0.60 0.53 0.62 0.47 0.57 0.66 0.73 1.07 1.04 0.61 0.55 0.71 0.46 0.64 0.52 0.41 0.29 0.50 0.33 0.29
1.26 1.46 1.37 0.66 0.67 0.43 0.25 0.22 0.30 0.18 0.03 0.26 0.26 0.27 0.31 0.46 0.57 0.88 0.73 0.59 0.62 0.52 0.51 0.73 1.06 1.22 1.60 0.82 0.44 nan 0.97 0.62 0.51 0.83 0.55 0.79 0.83 0.35
1.69 2.11 2.05 1.95 1.42 1.04 0.82 0.78 0.72 0.63 0.50 0.42 0.40 0.47 0.54 0.79 1.09 0.98 0.60 0.77 0.66 0.93 1.17 1.10 1.16 1.24 2.01 1.54 2.15 1.03 nan 0.83 0.68 0.90 1.01 0.58 0.59 nan
1.82 1.98 1.95 2.05 2.37 1.93 1.47 1.30 0.86 1.27 1.45 1.48 1.04 1.07 0.96 1.10 1.08 0.75 0.63 0.46 nan 1.36 1.66 1.08 0.79 nan 2.22 2.02 2.68 1.47 1.07 nan 0.19 1.38 1.46 1.45 1.15 0.84
1.80 1.89 1.86 1.75 1.88 2.31 2.22 2.09 2.01 1.79 1.69 1.51 1.60 1.72 1.38 1.19 1.39 1.15 0.99 1.53 0.95 1.18 1.56 1.55 1.40 1.74 2.36 2.00 1.71 1.34 1.24 0.81 nan nan nan nan 2.73 3.40
1.85 1.86 1.96 1.79 1.68 2.04 2.45 2.50 2.74 2.66 2.04 2.19 2.15 1.73 1.57 2.05 1.04 1.14 1.40 1.27 1.45 1.96 1.83 2.10 1.66 1.57 1.79 2.09 2.37 1.95 1.47 1.53 1.13 1.13 1.19 nan nan nan
SL_Ratio
nan nan nan nan nan nan nan nan nan nan nan nan nan nan nan nan nan nan nan nan nan nan nan nan nan nan nan nan nan nan nan nan nan nan nan nan nan nan
nan nan nan nan nan nan nan nan nan nan nan nan nan nan nan nan nan nan nan nan nan nan nan nan nan nan nan nan nan nan nan nan nan nan nan nan nan nan
nan nan nan nan nan nan nan nan nan nan nan nan nan nan nan nan nan nan nan nan nan nan nan nan nan nan nan nan nan nan nan nan nan nan nan nan nan nan
nan nan nan nan nan nan nan nan nan nan nan nan nan nan nan nan nan nan nan nan nan nan nan nan nan nan nan nan nan nan nan nan nan nan nan nan nan nan
nan nan nan 5.0 nan nan nan nan nan nan nan nan nan nan nan nan nan nan nan nan nan nan nan nan nan nan nan nan nan nan nan nan nan nan nan nan nan nan
nan nan nan nan nan 5.0 5.0 nan nan nan nan nan nan nan nan nan nan nan nan nan nan nan nan nan nan nan nan nan nan nan nan nan nan nan nan nan nan nan
5.0 10.0 5.0 nan nan nan 5.0 6.3 nan 5.0 nan nan nan nan nan nan nan nan nan nan nan nan nan nan nan nan nan nan nan nan nan nan nan nan nan nan nan nan
7.2 7.5 7.5 5.0 nan nan nan nan nan 6.4 6.7 5.0 nan nan nan nan nan nan nan nan nan nan nan nan nan nan nan nan nan nan nan nan nan nan nan nan nan nan
7.5 7.2 7.0 nan nan nan nan nan nan nan nan 6.3 6.7 nan nan nan nan nan nan nan nan nan nan nan nan nan nan nan nan nan nan nan nan nan nan nan nan nan
7.9 6.7 5.0 nan nan nan nan 5.0 nan nan nan nan nan nan nan nan nan nan nan nan nan nan nan nan nan nan nan nan nan nan nan nan nan nan nan nan nan nan
nan nan nan 5.0 nan nan nan 6.4 6.9 5.0 nan nan nan nan nan nan nan nan nan 2.5 2.5 nan nan nan nan nan nan nan nan nan nan nan nan nan nan nan nan nan
6.9 7.0 nan nan nan nan 5.0 6.9 7.5 7.5 nan nan nan nan nan nan nan nan nan 2.5 2.5 2.5 2.5 2.5 2.5 2.5 2.5 2.5 3.1 5.0 nan nan nan nan nan nan nan nan
7.9 7.6 7.1 nan nan nan nan 7.5 6.5 nan nan nan nan nan nan nan nan nan nan 2.5 2.5 2.5 2.5 2.5 2.5 2.5 2.6 2.5 2.6 3.0 nan nan nan nan nan nan nan nan
7.5 7.5 8.3 nan nan nan nan nan nan nan 5.0 5.9 4.4 3.3 2.5 2.5 2.5 2.5 nan nan 2.5 2.5 nan nan 2.5 2.5 2.5 3.1 2.8 2.5 2.5 nan 2.0 nan nan nan nan nan
6.8 6.8 nan nan nan nan nan nan nan 2.7 3.5 4.1 3.4 2.8 2.5 2.5 2.5 2.5 2.6 2.5 2.5 2.5 nan 2.5 2.5 2.5 2.5 2.6 2.9 2.6 2.5 2.5 2.6 2.5 2.6 2.5 nan nan
nan 7.5 nan 6.8 nan nan nan nan nan 6.3 3.0 3.1 2.8 2.6 2.5 2.5 2.5 2.5 2.5 2.5 2.5 2.8 3.8 2.7 2.5 2.5 2.6 2.5 2.5 2.9 2.5 3.0 2.5 2.5 2.5 2.5 2.5 nan
nan 7.7 4.4 3.4 3.6 3.5 3.3 6.3 5.0 3.4 3.1 3.0 3.0 3.3 3.2 2.9 3.0 2.5 2.5 2.6 3.1 3.3 3.5 3.0 3.2 2.5 2.5 2.6 3.4 2.8 2.9 3.1 2.5 2.5 2.5 2.6 2.5 2.5
7.2 5.3 4.1 3.6 3.5 3.2 3.7 3.8 3.6 3.1 3.1 3.1 3.0 3.0 3.1 3.0 3.1 3.0 2.7 2.9 3.5 3.5 3.7 3.2 3.2 3.6 2.9 2.9 2.5 3.1 3.1 3.3 3.1 3.2 3.1 3.7 3.7 3.3
5.3 4.5 4.6 4.1 3.9 3.5 3.6 3.7 3.9 3.3 3.8 2.8 2.9 2.8 2.8 3.0 3.0 3.4 3.4 3.4 3.8 3.7 3.6 3.4 3.7 3.9 4.6 4.7 3.7 nan 3.4 3.0 2.9 3.5 3.6 3.8 4.4 3.7
6.4 6.1 5.6 5.0 4.7 4.6 4.2 4.0 3.8 3.7 3.7 3.4 3.1 2.9 2.7 2.9 3.3 3.6 3.7 4.1 4.0 4.3 4.5 4.0 3.9 4.0 3.9 4.1 5.6 4.1 nan 3.2 3.4 4.0 4.5 4.5 4.9 nan
6.9 6.6 6.3 6.0 5.3 4.8 4.7 4.5 4.3 4.0 3.6 3.4 3.5 3.2 3.0 2.8 3.5 3.5 3.6 3.9 nan 4.5 4.9 4.9 3.8 nan 3.3 3.8 5.5 6.2 5.0 nan 3.5 4.0 4.3 5.4 5.8 5.3
7.2 6.8 6.4 6.3 6.1 5.2 4.8 4.5 4.3 4.2 4.0 4.1 3.9 3.6 3.5 3.5 3.8 3.9 4.1 4.4 4.6 4.7 5.0 4.3 3.9 3.9 4.3 4.6 5.6 7.6 6.2 4.9 nan nan nan nan 5.3 6.1
8.0 7.6 6.7 6.5 6.1 5.7 4.9 4.6 4.2 4.2 4.1 3.9 3.9 4.0 3.9 4.5 4.3 4.3 4.4 4.7 4.8 5.1 5.2 5.7 5.0 4.7 5.1 5.2 6.2 7.1 7.6 6.8 5.5 5.7 5.3 nan nan nan